CW2014 Weather Reports


time (UTC)temp
F
wind
direction
speed
knots
gust
knots
rain 1hr
in
rain 24hr
in
rain mn
in
humidity
%
barometer
mb
20260831112526 78 334 0.9 5.2 0.00 0.11 0.11 69 1010.5
20260831112025 78 0 2.6 7.8 0.00 0.11 0.11 69 1010.5
20260831111549 78 163 1.7 7.8 0.00 0.11 0.11 70 1010.3
20260831111024 78 168 3.5 7.8 0.00 0.11 0.11 71 1010.2
20260831110527 78 189 3.5 7.8 0.00 0.11 0.11 73 1010.1
20260831110048 77 148 2.6 7.8 0.00 0.11 0.11 74 1010.2
20260831105524 77 178 3.5 7.8 0.00 0.11 0.11 75 1010.3
20260831105024 77 200 3.5 7.0 0.00 0.11 0.11 75 1010.3
20260831104544 77 142 2.6 7.0 0.00 0.11 0.11 76 1010.0
20260831104025 77 157 1.7 7.8 0.00 0.11 0.11 76 1009.9
20260831103525 77 159 3.5 7.8 0.00 0.11 0.11 75 1009.9
20260831103055 78 188 2.6 7.8 0.00 0.11 0.11 73 1009.9
20260831102524 78 150 1.7 5.2 0.00 0.11 0.11 72 1009.7
20260831102031 78 112 1.7 6.1 0.00 0.11 0.11 70 1009.6
20260831101612 78 102 1.7 7.8 0.00 0.11 0.11 69 1009.4
20260831101024 78 78 2.6 7.8 0.00 0.11 0.11 69 1009.3
20260831100524 78 65 2.6 5.2 0.00 0.11 0.11 70 1009.3
20260831100057 78 22 1.7 4.3 0.00 0.11 0.11 71 1009.4
20260831095527 78 58 0.9 5.2 0.00 0.11 0.11 71 1009.6
20260831095028 78 22 1.7 6.1 0.00 0.11 0.11 73 1009.6
20260831094544 77 37 1.7 7.0 0.00 0.11 0.11 74 1009.6
20260831094023 77 67 2.6 7.0 0.00 0.11 0.11 76 1009.7
20260831093525 78 108 2.6 7.0 0.00 0.11 0.11 76 1009.9
20260831093057 78 148 1.7 7.0 0.00 0.11 0.11 75 1010.0
20260831092525 78 115 2.6 7.0 0.00 0.11 0.11 74 1010.3
20260831092024 79 150 2.6 6.1 0.00 0.11 0.11 73 1010.1
20260831091549 79 98 1.7 5.2 0.00 0.11 0.11 71 1009.9
20260831091029 79 83 0.9 4.3 0.00 0.11 0.11 71 1009.8
20260831090527 79 69 1.7 6.1 0.00 0.11 0.11 71 1010.0
20260831090105 79 61 1.7 8.7 0.00 0.11 0.11 72 1010.0
20260831085525 78 13 2.6 8.7 0.00 0.11 0.11 73 1010.1
20260831085030 77 61 2.6 7.0 0.00 0.11 0.11 75 1010.4
20260831084549 77 87 0.0 4.3 0.01 0.11 0.11 78 1010.5
20260831084024 77 74 1.7 6.1 0.10 0.11 0.11 78 1010.6
20260831083527 77 0 0.0 6.1 0.11 0.11 0.11 79 1010.6
20260831083048 77 100 1.7 5.2 0.11 0.11 0.11 78 1010.8
20260831082526 77 115 1.7 5.2 0.11 0.11 0.11 77 1011.0
20260831082026 77 96 0.9 7.8 0.11 0.11 0.11 76 1011.2
20260831081551 77 84 2.6 8.7 0.11 0.11 0.11 76 1011.1
20260831081025 77 77 4.3 8.7 0.11 0.11 0.11 77 1010.9
20260831080525 77 31 2.6 11.3 0.11 0.11 0.11 78 1010.6
20260831080051 76 42 5.2 11.3 0.11 0.11 0.11 79 1010.3
20260831075525 76 76 0.9 10.4 0.11 0.11 0.11 75 1010.5
20260831075027 79 140 4.3 10.4 0.11 0.11 0.11 73 1011.1
20260831074558 81 52 4.3 8.7 0.08 0.08 0.08 70 1011.3
20260831074032 84 92 1.7 7.8 0.00 0.00 0.00 62 1011.6
20260831073531 84 314 1.7 9.6 0.00 0.00 0.00 58 1011.2
20260831073102 84 5 3.5 11.3 0.00 0.00 0.00 58 1010.5
20260831072527 84 81 4.3 11.3 0.00 0.00 0.00 58 1010.2
20260831072028 84 29 6.1 14.8 0.00 0.00 0.00 57 1010.2
20260831071551 85 34 5.2 14.8 0.00 0.00 0.00 56 1010.4
20260831071027 85 5 6.1 14.8 0.00 0.00 0.00 55 1010.5
20260831070524 85 308 5.2 10.4 0.00 0.00 0.00 54 1010.4
20260831070049 85 328 5.2 11.3 0.00 0.00 0.00 55 1010.4
20260831065527 84 26 4.3 14.8 0.00 0.00 0.00 56 1010.1
20260831065030 84 13 6.1 14.8 0.00 0.00 0.00 56 1009.9
20260831064554 85 36 2.6 11.3 0.00 0.00 0.00 55 1009.8
20260831064033 84 5 4.3 11.3 0.00 0.00 0.00 55 1010.0
20260831063527 85 55 4.3 11.3 0.00 0.00 0.00 55 1010.2
20260831063052 85 15 3.5 13.0 0.00 0.00 0.00 54 1010.1
20260831062527 85 25 5.2 13.0 0.00 0.00 0.00 54 1010.0
20260831062036 85 21 1.7 9.6 0.00 0.00 0.00 54 1009.7
20260831061600 85 327 4.3 9.6 0.00 0.00 0.00 54 1009.8
20260831061028 85 352 0.9 3.5 0.00 0.00 0.00 53 1009.7
20260831060527 85 202 0.0 8.7 0.00 0.00 0.00 53 1009.2
20260831060106 85 287 3.5 9.6 0.00 0.00 0.00 53 1009.2
20260831055524 85 296 4.3 9.6 0.00 0.00 0.00 52 1009.0
20260831055027 85 321 4.3 9.6 0.00 0.00 0.00 52 1008.7
20260831054550 85 300 4.3 9.6 0.00 0.00 0.00 53 1008.7
20260831054034 85 252 4.3 9.6 0.00 0.00 0.00 54 1008.8
20260831053527 85 226 5.2 8.7 0.00 0.00 0.00 53 1008.9
20260831053050 85 0 2.6 7.8 0.00 0.00 0.00 54 1008.9
20260831052529 84 269 2.6 7.0 0.00 0.00 0.00 57 1008.8
20260831052025 84 175 2.6 8.7 0.00 0.00 0.00 59 1008.9
20260831051604 84 218 4.3 11.3 0.00 0.00 0.00 60 1008.8
20260831051025 85 211 4.3 11.3 0.00 0.00 0.00 57 1008.9
20260831050524 86 207 5.2 12.2 0.00 0.00 0.00 56 1008.8
20260831050059 85 267 5.2 14.8 0.00 0.00 0.00 56 1008.7
20260831045529 85 260 7.0 18.2 0.00 0.00 0.00 57 1008.7
20260831045030 84 263 7.8 18.2 0.00 0.00 0.00 58 1009.0
20260831044549 83 228 5.2 15.6 0.00 0.00 0.00 61 1009.2
20260831044027 83 244 7.0 11.3 0.00 0.00 0.00 64 1009.2
20260831043527 83 244 4.3 20.0 0.00 0.00 0.00 63 1009.4
20260831043053 84 275 6.1 20.0 0.00 0.00 0.00 58 1009.5
20260831042524 85 272 7.8 20.0 0.00 0.00 0.00 55 1009.6
20260831042025 87 235 7.8 18.2 0.00 0.00 0.00 52 1009.2
20260831041559 89 242 7.8 13.0 0.00 0.00 0.00 52 1009.2
20260831041029 89 256 3.5 13.0 0.00 0.00 0.00 53 1008.8
20260831040528 90 229 6.1 13.0 0.00 0.00 0.00 49 1008.7
20260831040054 90 233 5.2 18.2 0.00 0.00 0.00 47 1008.8
20260831035524 90 230 6.1 18.2 0.00 0.00 0.00 46 1008.7
20260831035025 90 173 6.1 20.9 0.00 0.00 0.00 46 1008.6
20260831034550 90 220 8.7 20.9 0.00 0.00 0.00 46 1008.5
20260831034027 91 221 7.8 19.1 0.00 0.00 0.00 45 1008.8
20260831033527 93 217 7.0 19.1 0.00 0.00 0.00 43 1008.7
20260831033050 98 245 7.0 17.4 0.00 0.00 0.00 35 1008.6
20260831032528 100 0 0.0 2.6 0.00 0.00 0.00 33 1007.7
20260831032028 100 352 0.0 1.7 0.00 0.00 0.00 33 1007.6
20260831031554 100 352 0.0 2.6 0.00 0.00 0.00 33 1007.4
20260831031025 100 5 0.9 2.6 0.00 0.00 0.00 33 1007.2
20260831030525 100 0 0.0 2.6 0.00 0.00 0.00 33 1007.2
20260831030110 100 9 0.9 3.5 0.00 0.00 0.00 32 1007.1
20260831025525 100 31 0.9 5.2 0.00 0.00 0.00 32 1007.1
20260831025024 100 42 0.9 5.2 0.00 0.00 0.00 32 1007.0
20260831024611 100 0 0.9 3.5 0.00 0.00 0.00 32 1007.0
20260831024023 100 338 0.9 3.5 0.00 0.00 0.00 32 1006.9
20260831023525 100 0 0.0 1.7 0.00 0.00 0.00 32 1006.9
20260831023047 100 0 0.0 2.6 0.00 0.00 0.00 32 1006.8
20260831022524 100 0 0.9 2.6 0.00 0.00 0.00 32 1006.7
20260831022024 100 43 0.9 2.6 0.00 0.00 0.00 31 1006.7
20260831021554 100 348 0.0 3.5 0.00 0.00 0.00 32 1006.4
20260831021028 100 55 0.0 3.5 0.00 0.00 0.00 31 1006.3
20260831020526 101 55 0.9 3.5 0.00 0.00 0.00 31 1006.2
20260831020055 101 57 0.9 3.5 0.00 0.00 0.00 31 1006.2
20260831015528 101 346 0.9 3.5 0.00 0.00 0.00 31 1006.1
20260831015024 101 5 0.9 3.5 0.00 0.00 0.00 31 1006.2
20260831014551 102 0 0.9 3.5 0.00 0.00 0.00 31 1006.0
20260831014024 102 327 0.9 3.5 0.00 0.00 0.00 31 1005.9
20260831013525 102 0 0.9 2.6 0.00 0.00 0.00 30 1005.9
20260831013109 102 17 0.9 2.6 0.00 0.00 0.00 30 1005.9
20260831012523 102 41 0.0 2.6 0.00 0.00 0.00 30 1005.9
20260831012024 102 41 0.9 3.5 0.00 0.00 0.00 29 1005.8
20260831011549 102 321 0.0 4.3 0.00 0.00 0.00 30 1005.9
20260831011024 102 0 0.9 4.3 0.00 0.00 0.00 29 1006.0
20260831010526 102 315 1.7 7.0 0.00 0.00 0.00 29 1006.0
20260831010054 103 327 1.7 7.0 0.00 0.00 0.00 29 1006.2
20260831005524 103 331 2.6 7.0 0.00 0.00 0.00 29 1006.3
20260831005023 103 10 0.9 4.3 0.00 0.00 0.00 29 1006.2
20260831004550 103 103 0.9 4.3 0.00 0.00 0.00 29 1006.3
20260831004026 104 236 0.9 6.1 0.00 0.00 0.00 28 1006.4
20260831003526 104 0 1.7 6.1 0.00 0.00 0.00 28 1006.4
20260831003056 104 279 1.7 7.0 0.00 0.00 0.00 28 1006.4
20260831002527 104 294 1.7 7.0 0.00 0.00 0.00 28 1006.3
20260831002024 104 285 0.9 5.2 0.00 0.00 0.00 28 1006.3
20260831001549 104 232 2.6 6.1 0.00 0.00 0.00 28 1006.4
20260831001024 104 290 0.9 6.1 0.00 0.00 0.00 28 1006.3
20260831000524 104 344 1.7 6.1 0.00 0.00 0.00 28 1006.4
20260831000049 104 0 0.9 6.1 0.00 0.00 0.00 28 1006.3
20260830235527 105 5 1.7 5.2 0.00 0.00 0.00 27 1006.3
20260830235027 105 0 0.9 5.2 0.00 0.00 0.00 27 1006.4
20260830234604 105 344 1.7 5.2 0.00 0.00 0.00 27 1006.3
20260830234024 105 0 0.9 4.3 0.00 0.00 0.00 27 1006.3
20260830233524 105 0 0.9 7.0 0.00 0.00 0.00 27 1006.4
20260830233054 105 288 0.9 7.0 0.00 0.00 0.00 28 1006.6
20260830232527 104 221 0.9 7.0 0.00 0.00 0.00 28 1006.6
20260830232027 104 304 2.6 7.8 0.00 0.00 0.00 27 1006.6
20260830231549 104 311 1.7 7.8 0.00 0.00 0.00 28 1006.7
20260830231024 104 252 2.6 7.8 0.00 0.00 0.00 27 1006.8
20260830230524 104 285 1.7 7.0 0.00 0.00 0.00 28 1007.0
20260830230048 103 86 0.9 7.0 0.00 0.00 0.00 29 1007.0
20260830225525 104 311 2.6 7.0 0.00 0.00 0.00 28 1007.1
20260830225025 105 13 2.6 6.1 0.00 0.00 0.00 28 1007.3
20260830224554 105 360 0.9 4.3 0.00 0.00 0.00 28 1007.3
20260830224030 105 0 0.9 11.3 0.00 0.00 0.00 28 1007.3
20260830223524 104 302 1.7 11.3 0.00 0.00 0.00 29 1007.4
20260830223048 103 196 3.5 11.3 0.00 0.00 0.00 29 1007.6
20260830222524 104 288 3.5 7.8 0.00 0.00 0.00 29 1007.6
20260830222027 103 284 0.9 5.2 0.00 0.00 0.00 29 1007.7
20260830221550 103 24 1.7 5.2 0.00 0.00 0.00 29 1007.8
20260830221025 103 296 0.9 7.0 0.00 0.00 0.00 29 1007.9
20260830220524 104 336 2.6 7.0 0.00 0.00 0.00 29 1008.1
20260830220051 104 310 1.7 7.0 0.00 0.00 0.00 29 1008.1
20260830215524 105 202 1.7 6.1 0.00 0.00 0.00 28 1008.2
20260830215023 105 302 1.7 7.8 0.00 0.00 0.00 28 1008.3
20260830214547 105 159 2.6 8.7 0.00 0.00 0.00 28 1008.5
20260830214026 105 175 1.7 8.7 0.00 0.00 0.00 28 1008.6
20260830213526 104 340 1.7 8.7 0.00 0.00 0.00 28 1008.7
20260830213055 104 239 2.6 7.0 0.00 0.00 0.00 28 1008.9
20260830212524 104 292 2.6 7.0 0.00 0.00 0.00 29 1008.9
20260830212025 104 279 2.6 7.0 0.00 0.00 0.00 29 1009.0
20260830211552 104 5 0.9 7.8 0.00 0.00 0.00 29 1009.1
20260830211027 104 136 2.6 7.8 0.00 0.00 0.00 29 1009.2
20260830210525 104 135 1.7 7.0 0.00 0.00 0.00 29 1009.3
20260830210052 104 200 1.7 7.8 0.00 0.00 0.00 29 1009.5
20260830205524 105 269 3.5 7.8 0.00 0.00 0.00 29 1009.5
20260830205024 104 0 0.9 5.2 0.00 0.00 0.00 30 1009.5
20260830204555 104 91 1.7 5.2 0.00 0.00 0.00 29 1009.6
20260830204025 104 171 1.7 5.2 0.00 0.00 0.00 30 1009.7
20260830203524 103 164 0.9 6.1 0.00 0.00 0.00 31 1009.8
20260830203114 103 103 1.7 9.6 0.00 0.00 0.00 30 1009.9
20260830202528 103 171 2.6 9.6 0.00 0.00 0.00 30 1010.0
20260830202027 103 203 0.9 7.0 0.00 0.00 0.00 31 1010.1
20260830201550 102 217 1.7 7.0 0.00 0.00 0.00 32 1010.2
20260830201027 103 309 2.6 7.0 0.00 0.00 0.00 31 1010.3
20260830200531 101 265 0.9 6.1 0.00 0.00 0.00 33 1010.3
20260830200048 100 0 1.7 6.1 0.00 0.00 0.00 33 1010.4
20260830195527 101 15 0.9 6.1 0.00 0.00 0.00 33 1010.4
20260830195026 100 223 0.9 6.1 0.00 0.00 0.00 33 1010.6
20260830194606 101 38 0.9 6.1 0.00 0.00 0.00 33 1010.6
20260830194028 101 86 0.9 6.1 0.00 0.00 0.00 33 1010.6
20260830193525 101 49 1.7 6.1 0.00 0.00 0.00 33 1010.7
20260830193051 101 91 0.9 5.2 0.00 0.00 0.00 33 1010.7
20260830192527 100 122 0.9 8.7 0.00 0.00 0.00 33 1010.8
20260830192031 100 225 1.7 8.7 0.00 0.00 0.00 33 1011.0
20260830191601 100 333 2.6 7.8 0.00 0.00 0.00 33 1010.9
20260830191025 100 306 2.6 7.8 0.00 0.00 0.00 34 1011.2
20260830190527 100 188 1.7 7.0 0.00 0.00 0.00 34 1011.2
20260830190052 100 0 0.9 6.1 0.00 0.00 0.00 34 1011.4
20260830185529 100 91 1.7 6.1 0.00 0.00 0.00 35 1011.4
20260830185027 99 190 0.9 6.1 0.00 0.00 0.00 36 1011.4
20260830184551 98 235 0.9 7.8 0.00 0.00 0.00 36 1011.5
20260830184028 99 0 2.6 7.8 0.00 0.00 0.00 35 1011.6
20260830183527 100 128 1.7 7.8 0.00 0.00 0.00 34 1011.7
20260830183105 100 146 1.7 7.8 0.00 0.00 0.00 36 1011.8
20260830182525 99 186 1.7 7.0 0.00 0.00 0.00 36 1011.9
20260830182026 98 134 1.7 7.0 0.00 0.00 0.00 36 1011.9
20260830181557 98 333 0.9 7.8 0.00 0.00 0.00 35 1011.9
20260830181031 99 202 2.6 8.7 0.00 0.00 0.00 36 1012.1
20260830180527 99 174 2.6 8.7 0.00 0.00 0.00 35 1012.1
20260830180053 99 179 2.6 7.0 0.00 0.00 0.00 36 1012.2
20260830175528 98 127 1.7 6.1 0.00 0.00 0.00 37 1012.3
20260830175028 98 269 1.7 7.0 0.00 0.00 0.00 36 1012.3
20260830174551 98 137 3.5 7.0 0.00 0.00 0.00 36 1012.4
20260830174025 98 160 0.9 7.8 0.00 0.00 0.00 37 1012.4
20260830173527 97 0 0.9 7.8 0.00 0.00 0.00 37 1012.4
20260830173107 97 171 1.7 7.8 0.00 0.00 0.00 37 1012.4
20260830172523 97 178 2.6 7.8 0.00 0.00 0.00 38 1012.4
20260830172024 97 150 1.7 7.8 0.00 0.00 0.00 37 1012.4
20260830171550 96 192 2.6 7.8 0.00 0.00 0.00 38 1012.4
20260830171024 96 152 0.9 7.8 0.00 0.00 0.00 38 1012.3
20260830170525 95 153 3.5 7.8 0.00 0.00 0.00 39 1012.2
20260830170051 95 240 3.5 8.7 0.00 0.00 0.00 39 1012.3
20260830165524 95 157 2.6 8.7 0.00 0.00 0.00 40 1012.3
20260830165023 94 154 1.7 7.0 0.00 0.00 0.00 40 1012.3
20260830164609 94 121 2.6 7.0 0.00 0.00 0.00 40 1012.4
20260830164028 94 178 1.7 9.6 0.00 0.00 0.00 41 1012.3
20260830163525 94 163 1.7 9.6 0.00 0.00 0.00 41 1012.4
20260830163105 93 180 2.6 7.0 0.00 0.00 0.00 41 1012.4
20260830162524 93 113 2.6 7.8 0.00 0.00 0.00 42 1012.4
20260830162024 92 161 1.7 7.8 0.00 0.00 0.00 41 1012.5
20260830161549 92 144 2.6 7.0 0.00 0.00 0.00 42 1012.7
20260830161023 92 161 2.6 8.7 0.00 0.00 0.00 43 1012.5
20260830160527 91 161 2.6 8.7 0.00 0.00 0.00 44 1012.5
20260830160047 91 131 3.5 9.6 0.00 0.00 0.00 44 1012.5
20260830155524 91 151 2.6 9.6 0.00 0.00 0.00 45 1012.5
20260830155027 90 136 2.6 8.7 0.00 0.00 0.00 45 1012.5
20260830154555 90 122 2.6 8.7 0.00 0.00 0.00 46 1012.4
20260830154026 89 150 2.6 8.7 0.00 0.00 0.00 47 1012.4
20260830153524 89 97 3.5 7.8 0.00 0.00 0.00 47 1012.4
20260830153052 89 92 2.6 8.7 0.00 0.00 0.00 48 1012.4
20260830152529 88 101 2.6 10.4 0.00 0.00 0.00 48 1012.4
20260830152024 88 134 4.3 10.4 0.00 0.00 0.00 49 1012.5
20260830151550 87 128 2.6 9.6 0.00 0.00 0.00 49 1012.5
20260830151028 87 105 3.5 9.6 0.00 0.00 0.00 50 1012.6
20260830150524 87 88 3.5 8.7 0.00 0.00 0.00 50 1012.5
20260830150050 87 126 2.6 9.6 0.00 0.00 0.00 51 1012.6
20260830145528 87 134 3.5 9.6 0.00 0.00 0.00 51 1012.7
20260830145024 87 121 3.5 10.4 0.00 0.00 0.00 51 1012.8
20260830144603 87 162 3.5 10.4 0.00 0.00 0.00 51 1012.8
20260830144102 86 191 4.3 10.4 0.00 0.00 0.00 51 1012.7
20260830143526 86 135 2.6 10.4 0.00 0.00 0.00 51 1012.8
20260830143053 86 165 3.5 10.4 0.00 0.00 0.00 51 1012.7
20260830142524 86 140 3.5 9.6 0.00 0.00 0.00 51 1012.7
20260830142025 86 155 3.5 8.7 0.00 0.00 0.00 51 1012.7
20260830141548 86 157 2.6 8.7 0.00 0.00 0.00 51 1012.6
20260830141028 85 153 2.6 9.6 0.00 0.00 0.00 52 1012.4
20260830140524 85 155 2.6 9.6 0.00 0.00 0.00 52 1012.4
20260830140056 85 141 3.5 9.6 0.00 0.00 0.00 53 1012.3
20260830135526 84 154 1.7 7.8 0.00 0.00 0.00 53 1012.2
20260830135027 84 119 1.7 6.1 0.00 0.00 0.00 54 1012.3
20260830134553 84 137 2.6 7.0 0.00 0.00 0.00 54 1012.2
20260830134025 84 151 2.6 9.6 0.00 0.00 0.00 54 1012.0
20260830133531 84 168 2.6 9.6 0.00 0.00 0.00 54 1011.8
20260830133126 84 141 3.5 9.6 0.00 0.00 0.00 53 1011.8
20260830132527 84 203 2.6 8.7 0.00 0.00 0.00 54 1011.7
20260830132027 83 173 3.5 7.0 0.00 0.00 0.00 54 1011.5
20260830131608 83 144 0.9 5.2 0.00 0.00 0.00 54 1011.5
20260830131024 83 173 0.9 6.1 0.00 0.00 0.00 55 1011.4
20260830130528 83 186 0.9 6.1 0.00 0.00 0.00 55 1011.3
20260830130048 83 161 1.7 7.8 0.00 0.00 0.00 55 1011.2
20260830125523 83 113 2.6 7.8 0.00 0.00 0.00 55 1011.1
20260830125025 83 133 2.6 10.4 0.00 0.00 0.00 55 1011.0
20260830124607 83 129 2.6 10.4 0.00 0.00 0.00 55 1010.9
20260830124031 83 140 3.5 10.4 0.00 0.00 0.00 55 1010.7
20260830123523 83 107 4.3 12.2 0.00 0.00 0.00 54 1010.8
20260830123053 84 142 4.3 12.2 0.00 0.00 0.00 54 1010.7
20260830122525 84 102 6.1 13.9 0.00 0.00 0.00 53 1010.7
20260830122023 84 175 6.1 13.9 0.00 0.00 0.00 52 1010.7
20260830121546 84 136 5.2 13.0 0.00 0.00 0.00 51 1010.6
20260830121027 84 177 6.1 13.0 0.00 0.00 0.00 50 1010.6
20260830120525 84 166 3.5 9.6 0.00 0.00 0.00 51 1010.5
20260830120053 84 171 4.3 8.7 0.00 0.00 0.00 51 1010.5
20260830115524 84 171 2.6 7.8 0.00 0.00 0.00 51 1010.5
20260830115024 84 113 1.7 7.8 0.00 0.00 0.00 51 1010.6
20260830114550 84 150 2.6 7.8 0.00 0.00 0.00 51 1010.6
20260830114024 84 161 3.5 9.6 0.00 0.00 0.00 51 1010.6
20260830113528 84 146 3.5 9.6 0.00 0.00 0.00 51 1010.5
20260830113052 84 162 3.5 9.6 0.00 0.00 0.00 50 1010.6